User: anonymous   Login
Location: NJAA Observatory
(40.6819°N, 74.8979°W)
Time: 02:33:07
(UTC-04:00)
Language:

Cosmos 220 Rocket - Orbit

View from above orbital plane
View from above orbital plane
View from above satellite
View from above satellite

Ground track
Ground track

The orbit data is extracted from the following two-line orbital elements,

1 03230U 68040B   15110.85376130  .00002579  00000-0  27533-3 0  9993
2 03230 074.0392 019.9076 0031656 183.9512 176.1425 14.89037362518123
Epoch (UTC): 20 April 2015 20:29:24
Eccentricity: 0.0031656
inclination: 74.0392°
perigee height: 579 km
apogee height: 623 km
right ascension of ascending node: 19.9076°
argument of perigee: 183.9512°
revolutions per day: 14.89037362
mean anomaly at epoch: 176.1425°
orbit number at epoch: 51812

The dashed part of the orbit path shows where the satellite is in the earth's shadow,  

DLR